Location: Monrovia
(34.7865°N, 86.7139°W)
Time: 00:43:29
(UTC+00:00)

Cosmos 1725 Rocket - Pass Details

Date: 14 July 2020
Orbit: 963 x 990 km, 82.9° (Epoch: 12 August)

Event Time Altitude Azimuth Distance (km) Brightness Sun altitude
Exits shadow 08:19:52 40° 261° (W) 1,399 4.5 -23.7°
Maximum altitude 08:20:41 42° 281° (W) 1,360 4.5 -23.6°
Drops below altitude 10° 08:26:33 10° 351° (N) 2,726 6.9 -22.9°
Sets 08:29:14 0° 359° (N) 3,681 7.8 -22.5°
